When you browse on this site, cookies collect data to enhance your experience and personalize the content and advertising you see.
Visit our Privacy Policy to learn more. By continuing to use the site, you agree to this use of cookies and data.
  • In United Kingdom
  • List of Countries
  • For 7 days
  • Water Temperature
  • Weather Map
  • Weather Widgets
  • user-avatar
    Login

    Hourly Weather Gomel

    Today, 18 February, Tuesday

    Time Temperature Precipitation Wind Pressure Humidity
    00:00 +4°C° 0.4 mm 3 mps 750 mmHg 89%
    01:00 +5°C° 0.4 mm 2 mps 750 mmHg 92%
    02:00 +5°C° 0 mm 2 mps 750 mmHg 95%
    03:00 +5°C° 1 mm 2 mps 750 mmHg 96%
    04:00 +5°C° 1 mm 2 mps 750 mmHg 97%
    05:00 +5°C° 1 mm 2 mps 749 mmHg 98%
    06:00 +5°C° 1.7 mm 2 mps 749 mmHg 98%
    07:00 +5°C° 1.7 mm 2 mps 749 mmHg 98%
    08:00 +5°C° 1.7 mm 2 mps 749 mmHg 98%
    09:00 +5°C° 1.7 mm 2 mps 749 mmHg 98%
    10:00 +5°C° 1.7 mm 2 mps 749 mmHg 98%
    11:00 +5°C° 1.7 mm 2 mps 748 mmHg 98%
    12:00 +5°C° 0.6 mm 2 mps 748 mmHg 96%
    13:00 +5°C° 0.6 mm 2 mps 748 mmHg 94%
    14:00 +7°C° 0.6 mm 1 mps 748 mmHg 92%
    15:00 +6°C° 0 mm 2 mps 748 mmHg 93%
    16:00 +6°C° 0 mm 2 mps 748 mmHg 93%
    17:00 +6°C° 0 mm 2 mps 748 mmHg 94%
    18:00 +4°C° 0 mm 3 mps 748 mmHg 93%
    19:00 +4°C° 0 mm 3 mps 748 mmHg 92%
    20:00 +3°C° 0 mm 3 mps 749 mmHg 91%
    21:00 +3°C° 0 mm 4 mps 749 mmHg 89%
    22:00 +3°C° 0 mm 4 mps 749 mmHg 88%
    23:00 +1°C° 0 mm 4 mps 749 mmHg 86%

    Tomorrow, 19 February, Wednesday

    Time Temperature Precipitation Wind Pressure Humidity
    00:00 +1°C° 0 mm 4 mps 749 mmHg 87%
    01:00 0°C° 0 mm 4 mps 749 mmHg 89%
    02:00 0°C° 0 mm 4 mps 750 mmHg 90%
    03:00 0°C° 0 mm 4 mps 750 mmHg 91%
    04:00 0°C° 0 mm 4 mps 750 mmHg 91%
    05:00 0°C° 0 mm 4 mps 749 mmHg 92%
    06:00 0°C° 0 mm 4 mps 750 mmHg 92%
    07:00 0°C° 0 mm 4 mps 750 mmHg 91%
    08:00 -1°C° 0 mm 4 mps 750 mmHg 91%
    09:00 0°C° 0 mm 4 mps 750 mmHg 86%
    10:00 +1°C° 0 mm 4 mps 750 mmHg 81%
    11:00 +2°C° 0 mm 5 mps 750 mmHg 76%
    12:00 +4°C° 0 mm 4 mps 750 mmHg 72%
    13:00 +5°C° 0 mm 4 mps 750 mmHg 68%
    14:00 +5°C° 0 mm 4 mps 750 mmHg 64%
    15:00 +5°C° 0 mm 4 mps 750 mmHg 68%
    16:00 +4°C° 0 mm 3 mps 750 mmHg 71%
    17:00 +4°C° 0 mm 3 mps 750 mmHg 75%
    18:00 +4°C° 0 mm 2 mps 750 mmHg 78%
    19:00 +4°C° 0 mm 2 mps 750 mmHg 81%
    20:00 +3°C° 0 mm 2 mps 750 mmHg 84%
    21:00 +3°C° 0 mm 2 mps 750 mmHg 84%
    22:00 +2°C° 0 mm 2 mps 750 mmHg 85%
    23:00 +2°C° 0 mm 2 mps 750 mmHg 86%

    Day after tomorrow, 20 February, Thursday

    Time Temperature Precipitation Wind Pressure Humidity
    00:00 +2°C° 0 mm 2 mps 750 mmHg 86%
    01:00 +2°C° 0 mm 2 mps 751 mmHg 87%
    02:00 +2°C° 0 mm 2 mps 751 mmHg 87%
    03:00 +1°C° 0 mm 2 mps 751 mmHg 88%
    04:00 +1°C° 0 mm 2 mps 751 mmHg 89%
    05:00 +1°C° 0 mm 2 mps 751 mmHg 89%
    06:00 +1°C° 0 mm 2 mps 751 mmHg 89%
    07:00 +1°C° 0 mm 2 mps 751 mmHg 88%
    08:00 +1°C° 0 mm 2 mps 751 mmHg 87%
    09:00 +2°C° 0 mm 2 mps 751 mmHg 83%
    10:00 +3°C° 0 mm 2 mps 752 mmHg 79%
    11:00 +4°C° 0 mm 3 mps 752 mmHg 75%
    12:00 +4°C° 0 mm 3 mps 752 mmHg 74%
    13:00 +5°C° 0 mm 3 mps 752 mmHg 73%
    14:00 +6°C° 0 mm 2 mps 752 mmHg 72%
    15:00 +6°C° 0 mm 2 mps 752 mmHg 76%
    16:00 +5°C° 0 mm 2 mps 752 mmHg 80%
    17:00 +5°C° 0 mm 1 mps 752 mmHg 84%
    18:00 +5°C° 0 mm 1 mps 753 mmHg 86%
    19:00 +5°C° 0 mm 1 mps 753 mmHg 88%
    20:00 +4°C° 0 mm 1 mps 754 mmHg 90%
    21:00 +4°C° 0 mm 1 mps 754 mmHg 91%
    22:00 +4°C° 0 mm 1 mps 754 mmHg 91%
    23:00 +4°C° 0 mm 1 mps 754 mmHg 92%

    21 February, Friday

    Time Temperature Precipitation Wind Pressure Humidity
    00:00 +4°C° 0.1 mm 1 mps 754 mmHg 93%
    01:00 +4°C° 0.1 mm 1 mps 755 mmHg 94%
    02:00 +4°C° 0.1 mm 1 mps 755 mmHg 95%
    03:00 +4°C° 0 mm 1 mps 755 mmHg 94%
    04:00 +4°C° 0 mm 1 mps 754 mmHg 93%
    05:00 +4°C° 0 mm 1 mps 754 mmHg 93%
    06:00 +3°C° 0 mm 1 mps 754 mmHg 92%
    07:00 +3°C° 0 mm 1 mps 754 mmHg 91%
    08:00 +3°C° 0 mm 1 mps 754 mmHg 90%
    15:00 +3°C° 0 mm 5 mps 752 mmHg 73%
    16:00 +3°C° 0 mm 5 mps 752 mmHg 75%
    17:00 +4°C° 0 mm 4 mps 752 mmHg 78%
    18:00 +3°C° 0 mm 4 mps 752 mmHg 79%
    19:00 +2°C° 0 mm 5 mps 752 mmHg 81%
    20:00 +1°C° 0 mm 5 mps 752 mmHg 82%
    21:00 +1°C° 0 mm 4 mps 752 mmHg 83%
    22:00 0°C° 0 mm 4 mps 752 mmHg 85%
    23:00 0°C° 0 mm 4 mps 752 mmHg 86%

    22 February, Saturday

    Time Temperature Precipitation Wind Pressure Humidity
    00:00 0°C° 0 mm 4 mps 752 mmHg 87%
    01:00 0°C° 0 mm 4 mps 752 mmHg 88%
    02:00 0°C° 0 mm 3 mps 752 mmHg 88%
    03:00 0°C° 0 mm 3 mps 752 mmHg 89%
    04:00 0°C° 0 mm 3 mps 752 mmHg 90%
    05:00 +1°C° 0 mm 2 mps 752 mmHg 91%
    06:00 +1°C° 0.1 mm 2 mps 753 mmHg 93%
    07:00 +1°C° 0.1 mm 2 mps 753 mmHg 95%
    08:00 +1°C° 0.1 mm 2 mps 754 mmHg 97%
    09:00 +2°C° 0.1 mm 2 mps 754 mmHg 93%
    10:00 +2°C° 0.1 mm 2 mps 754 mmHg 89%
    11:00 +3°C° 0.1 mm 2 mps 754 mmHg 85%
    12:00 +2°C° 0 mm 3 mps 754 mmHg 79%
    13:00 +3°C° 0 mm 3 mps 754 mmHg 73%
    14:00 +3°C° 0 mm 3 mps 754 mmHg 66%
    15:00 +3°C° 0 mm 3 mps 754 mmHg 67%
    16:00 +3°C° 0 mm 3 mps 754 mmHg 68%
    17:00 +3°C° 0 mm 3 mps 753 mmHg 69%
    18:00 +3°C° 0 mm 4 mps 753 mmHg 71%
    19:00 +3°C° 0 mm 4 mps 753 mmHg 72%
    20:00 +3°C° 0 mm 4 mps 752 mmHg 73%
    21:00 +1°C° 0 mm 5 mps 752 mmHg 75%
    22:00 +1°C° 0 mm 6 mps 751 mmHg 76%
    23:00 0°C° 0 mm 7 mps 750 mmHg 77%

    23 February, Sunday

    Time Temperature Precipitation Wind Pressure Humidity
    00:00 0°C° 0.1 mm 7 mps 749 mmHg 79%
    01:00 0°C° 0.1 mm 8 mps 748 mmHg 80%
    02:00 0°C° 0.1 mm 8 mps 747 mmHg 81%
    03:00 0°C° 0.6 mm 8 mps 746 mmHg 86%
    04:00 0°C° 0.6 mm 8 mps 745 mmHg 90%
    05:00 0°C° 0.6 mm 8 mps 743 mmHg 94%
    06:00 +1°C° 0.5 mm 8 mps 742 mmHg 92%
    07:00 +1°C° 0.5 mm 8 mps 741 mmHg 91%
    08:00 +2°C° 0.5 mm 8 mps 740 mmHg 90%
    09:00 +2°C° 0.6 mm 8 mps 739 mmHg 89%
    10:00 +2°C° 0.6 mm 8 mps 739 mmHg 89%
    11:00 +4°C° 0.6 mm 8 mps 738 mmHg 89%
    12:00 +4°C° 0.7 mm 8 mps 738 mmHg 82%
    13:00 +4°C° 0.7 mm 8 mps 737 mmHg 75%
    14:00 +4°C° 0.7 mm 8 mps 737 mmHg 68%
    15:00 +2°C° 0.1 mm 8 mps 737 mmHg 67%
    16:00 +3°C° 0.1 mm 7 mps 738 mmHg 66%
    17:00 +2°C° 0.1 mm 7 mps 738 mmHg 65%
    18:00 +1°C° 0 mm 6 mps 739 mmHg 67%
    19:00 +1°C° 0 mm 6 mps 739 mmHg 69%
    20:00 0°C° 0 mm 5 mps 740 mmHg 71%
    21:00 0°C° 0 mm 5 mps 740 mmHg 72%
    22:00 0°C° 0 mm 5 mps 741 mmHg 73%
    23:00 -1°C° 0 mm 5 mps 741 mmHg 74%
    Show more